[[{"header":{"parameterUnit":"m.s-1","parameterCategory":1,"la1":30.2991,"la2":30.254,"lo1":-89.0895,"lo2":-89.0444,"dy":0.0017,"dx":0.0017,"nx":28,"ny":28,"refTime":"2025-07-11T21:00:00:Z","depth":0,"parameterNumber":2,"parameterNumberName":"U-component_of_WINDS"},"data":[0,0,0,0,0,0,0,0,0,0,0,0,0,0,0,0,0,0,0,0,0,0,0,0,0,0,0,0,0,0,0,0,0,0,0,0,0,0,0,0,0,0,0,0,0,0,0,0,0,0,0,0,0,0,0,0,0,0,2.3321,2.3321,0,2.3388,2.3389,2.339,2.3363,2.3361,2.336,2.3358,2.3425,2.3428,2.3431,0,0,0,0,0,0,0,0,0,0,0,0,0,2.3164,2.3167,2.3321,2.3321,2.3322,2.3388,2.3389,2.339,2.3363,2.3361,2.3359,2.3357,2.3424,2.3428,2.3431,0,0,0,0,0,0,0,0,0,0,0,0,0,2.3232,2.3168,2.332,2.3317,2.3317,2.3388,2.3389,2.339,2.3363,2.3361,2.3359,2.3356,2.3422,2.3427,2.3432,2.3509,0,0,2.3447,2.3449,0,0,0,0,0,0,0,0,2.3228,2.3238,2.3317,2.3317,2.3318,2.3365,2.3358,2.343,2.3364,2.3346,2.3358,2.3355,2.3407,2.3413,2.343,2.3512,2.3515,2.3447,2.345,2.3452,2.3454,0,0,0,0,0,0,0,2.3223,2.3235,2.3347,2.3318,2.3318,2.331,2.3317,2.3372,2.3389,2.3347,2.3345,2.3354,2.3406,2.3426,2.3432,2.3516,2.3447,2.3451,2.3454,2.3456,2.3662,2.3664,0,0,0,0,0,0,2.3219,2.3231,2.3345,2.3349,2.3266,2.3315,2.3323,2.3352,2.3388,2.3391,2.3356,2.3352,2.3419,2.3426,2.3434,2.3524,2.3452,2.3457,2.346,2.3659,2.3662,2.3665,0,0,0,0,0,0,2.3216,2.3229,2.3342,2.329,2.3303,2.332,2.3353,2.3355,2.3374,2.3394,2.3397,2.3373,2.3417,2.3427,2.349,2.3526,2.3459,2.3463,2.3656,2.366,2.3664,2.3707,0,0,0,0,0,0,2.3211,2.3229,2.3259,2.3291,2.3306,2.3399,2.3355,2.3358,2.3383,2.3379,2.3411,2.3414,2.3416,2.3483,2.3495,2.3532,2.3467,2.3653,2.3658,2.3662,2.3703,2.3712,2.372,0,0,0,0,0,2.3206,2.3269,2.3261,2.3275,2.3345,2.3401,2.341,2.3412,2.3386,2.3416,2.3428,2.3413,2.3521,2.349,2.3503,2.3542,2.3651,2.3657,2.3662,2.3699,2.371,2.372,0,0,0,0,0,0,2.3241,2.3273,2.3264,2.334,2.3368,2.3396,2.3434,2.3424,2.346,2.3454,2.3454,2.3462,2.3526,2.3541,2.3505,2.3617,2.3582,2.359,2.3605,2.3616,2.3625,2.3619,2.3471,0,0,0,0,0,2.3258,2.3301,2.3327,2.3391,2.3405,2.3418,2.3442,2.3441,2.3469,2.3481,2.3499,2.3526,2.3566,2.3592,2.363,2.3705,2.371,2.3738,2.3747,2.3754,2.3761,2.3798,2.381,2.3684,2.3684,2.3684,0,0,2.3292,2.3315,2.3343,2.3398,2.342,2.3463,2.3428,2.3476,2.3508,2.3488,2.3548,2.3562,2.3593,2.3661,2.3692,2.3675,2.3797,2.3761,2.3767,2.377,2.3805,2.3817,2.3828,2.3688,2.3687,2.3686,0,0,2.3376,2.34,2.3454,2.3476,2.3509,2.3517,2.353,2.356,2.3568,2.3629,2.3614,2.3651,2.3721,2.3742,2.3762,2.3853,2.3839,2.3866,2.3911,2.3947,2.3957,2.3966,2.3995,2.4006,2.3873,2.3873,2.3873,0,2.3415,2.3481,2.3483,2.3532,2.3555,2.354,2.3594,2.3615,2.3659,2.3675,2.3655,2.374,2.376,2.3832,2.3854,2.3872,2.3884,2.3861,2.3956,2.3965,2.3973,2.4001,2.4012,2.3876,2.3875,2.3875,2.3875,0,2.3525,2.3571,2.3611,2.3653,2.3681,2.3733,2.374,2.3769,2.3765,2.3774,2.3834,2.3857,2.3898,2.3915,2.3912,2.3986,2.3974,2.3956,2.392,2.3987,2.4014,2.4025,2.388,2.3879,2.3878,2.3877,0,0,2.3633,2.3675,2.3689,2.3707,2.3742,2.3777,2.3826,2.3867,2.389,2.392,2.396,2.4018,2.4,2.4023,2.4022,2.4055,2.4121,2.4031,2.4032,2.4045,2.42,2.4212,2.4225,2.4113,2.4115,2.4117,2.4197,0,2.3718,2.3805,2.3808,2.3887,2.3928,2.3913,2.3956,2.3981,2.399,2.4025,2.4035,2.4075,2.405,2.4063,2.4095,2.4106,2.4152,2.4101,2.4147,2.4149,2.4138,2.4239,2.4253,2.4327,2.4208,2.4209,2.4211,0,2.3829,2.3862,2.3946,2.3972,2.3989,2.4028,2.4064,2.4098,2.4125,2.413,2.4155,2.4148,2.4196,2.416,2.4225,2.419,2.4209,2.4218,2.4221,2.4223,2.4182,2.4242,2.4352,2.4362,2.4227,2.4226,2.4225,0,2.3895,2.3962,2.4019,2.4035,2.4069,2.4096,2.4111,2.4136,2.4159,2.419,2.4205,2.4242,2.4261,2.4288,2.4291,2.4265,2.4355,2.432,2.4358,2.4358,2.4376,2.4374,2.4488,2.4393,2.4393,2.4392,2.4392,0,2.3988,2.4039,2.4049,2.4084,2.414,2.4142,2.4196,2.4209,2.4231,2.4267,2.4257,2.4291,2.4294,2.4328,2.433,2.4382,2.4391,2.4394,2.4394,2.4394,2.4393,2.4405,2.4398,2.4395,2.4395,2.4394,2.4394,0,2.4071,2.4081,2.4142,2.4169,2.4176,2.4216,2.4238,2.427,2.4279,2.4324,2.4335,2.4347,2.4386,2.4392,2.4439,2.444,2.4501,2.4497,2.4492,2.449,2.4527,2.4522,2.4649,2.4665,2.4562,2.4563,2.4564,0,2.4129,2.4167,2.4198,2.4222,2.4238,2.4276,2.43,2.4303,2.4327,2.436,2.4388,2.4427,2.4457,2.4521,2.4533,2.4568,2.4562,2.4604,2.4567,2.4565,2.4559,2.4556,2.4558,2.4611,2.4612,2.4613,2.4613,0,2.4229,2.4231,2.4266,2.4302,2.4331,2.436,2.4386,2.4406,2.4412,2.444,2.448,2.4504,2.4551,2.4588,2.4622,2.4636,2.4625,2.4625,2.4635,2.4634,2.4629,2.4629,2.4509,2.4622,2.4621,2.462,2.462,2.462,2.4299,2.4331,2.4357,2.4396,2.4417,2.4441,2.4473,2.4485,2.4519,2.4557,2.4557,2.46,2.4624,2.4669,2.4685,2.4717,2.4703,2.4719,2.4722,2.4725,2.4727,2.4626,2.4724,2.4724,2.4723,2.4723,2.4723,0,2.4396,2.4412,2.4447,2.4485,2.4515,2.4503,2.4532,2.4557,2.4596,2.4619,2.465,2.4694,2.473,2.4745,2.478,2.4803,2.4798,2.4812,2.4808,2.4811,2.4739,2.4726,2.4814,2.4814,2.4814,2.4814,2.4814,2.4814,2.4449,2.4503,2.4508,2.4571,2.4586,2.4629,2.4646,2.4668,2.4687,2.4737,2.4767,2.4777,2.4796,2.4832,2.4864,2.4867,2.4879,2.4893,2.4894,2.4826,2.4817,2.4808,2.4795,2.4897,2.4897,2.4963,2.4964,2.4964]},{"header":{"parameterUnit":"m.s-1","parameterCategory":1,"la1":30.2991,"la2":30.254,"lo1":-89.0895,"lo2":-89.0444,"dy":0.0017,"dx":0.0017,"nx":28,"ny":28,"refTime":"2025-07-11T21:00:00:Z","depth":0,"parameterNumber":3,"parameterNumberName":"V-component_of_WINDS"},"data":[0,0,0,0,0,0,0,0,0,0,0,0,0,0,0,0,0,0,0,0,0,0,0,0,0,0,0,0,0,0,0,0,0,0,0,0,0,0,0,0,0,0,0,0,0,0,0,0,0,0,0,0,0,0,0,0,0,0,3.6782,3.6783,0,3.6828,3.6828,3.6829,3.6805,3.6804,3.6802,3.6801,3.6843,3.6845,3.6847,0,0,0,0,0,0,0,0,0,0,0,0,0,3.6669,3.6672,3.6782,3.6783,3.6784,3.6828,3.6828,3.6829,3.6805,3.6804,3.6802,3.6801,3.6842,3.6845,3.6847,0,0,0,0,0,0,0,0,0,0,0,0,0,3.6717,3.6672,3.6782,3.6777,3.6777,3.6828,3.6828,3.6829,3.6805,3.6803,3.6802,3.68,3.6841,3.6844,3.6848,3.6905,0,0,3.6858,3.6859,0,0,0,0,0,0,0,0,3.6714,3.6721,3.6777,3.6778,3.6778,3.6809,3.6804,3.6854,3.6806,3.6794,3.6801,3.6799,3.6833,3.6837,3.6849,3.6907,3.6908,3.6858,3.686,3.6862,3.6863,0,0,0,0,0,0,0,3.6711,3.6719,3.68,3.6778,3.6778,3.6771,3.6775,3.6813,3.6823,3.6795,3.6794,3.68,3.6832,3.6846,3.685,3.6909,3.6858,3.6861,3.6863,3.6864,3.7014,3.7016,0,0,0,0,0,0,3.6709,3.6716,3.6799,3.6802,3.6741,3.6774,3.6779,3.6801,3.6823,3.6824,3.6801,3.6798,3.6841,3.6846,3.6851,3.6918,3.6862,3.6865,3.6867,3.7012,3.7014,3.7017,0,0,0,0,0,0,3.6706,3.6716,3.6797,3.6759,3.6768,3.6778,3.6802,3.6802,3.6816,3.6827,3.6828,3.6813,3.684,3.6846,3.6891,3.6919,3.6866,3.6869,3.701,3.7013,3.7015,3.7053,0,0,0,0,0,0,3.6703,3.6716,3.6739,3.6759,3.6771,3.6838,3.6804,3.6805,3.6822,3.6819,3.6839,3.684,3.6839,3.6887,3.6895,3.6923,3.6872,3.7007,3.7011,3.7015,3.7049,3.7057,3.7063,0,0,0,0,0,3.6699,3.6747,3.674,3.675,3.68,3.684,3.6846,3.6845,3.6825,3.6847,3.6854,3.684,3.6915,3.6891,3.69,3.693,3.7005,3.701,3.7014,3.7046,3.7055,3.7063,0,0,0,0,0,0,3.6727,3.6749,3.6742,3.6798,3.6817,3.6836,3.6864,3.6855,3.6879,3.6875,3.6871,3.6875,3.6922,3.6931,3.6904,3.6985,3.6957,3.6963,3.6978,3.6987,3.6994,3.699,3.6875,0,0,0,0,0,3.674,3.6773,3.6789,3.6837,3.6847,3.6854,3.6871,3.6869,3.6888,3.6896,3.6906,3.6924,3.6952,3.697,3.6996,3.7051,3.7054,3.7075,3.7082,3.7088,3.7093,3.7121,3.713,3.7031,3.7031,3.7031,0,0,3.6766,3.6782,3.6803,3.6843,3.6858,3.689,3.6861,3.6896,3.6919,3.6901,3.6944,3.6952,3.6972,3.7022,3.7044,3.703,3.7121,3.7094,3.7098,3.71,3.7126,3.7136,3.7144,3.7034,3.7033,3.7033,0,0,3.683,3.6847,3.6887,3.6903,3.6927,3.6931,3.6941,3.6961,3.6966,3.701,3.6996,3.7023,3.7071,3.7085,3.7099,3.7168,3.7155,3.7177,3.7212,3.724,3.7248,3.7254,3.7277,3.7286,3.7182,3.7182,3.7182,0,3.6859,3.6908,3.6909,3.6945,3.6962,3.6949,3.6989,3.7004,3.7034,3.7045,3.703,3.7089,3.7102,3.7154,3.7171,3.7183,3.7192,3.7174,3.7247,3.7254,3.726,3.7282,3.7291,3.7185,3.7184,3.7184,3.7184,0,3.6942,3.6976,3.7006,3.7037,3.7058,3.7096,3.71,3.7121,3.7117,3.7122,3.7166,3.718,3.7209,3.7221,3.7217,3.7273,3.7263,3.7248,3.7218,3.7272,3.7292,3.73,3.7188,3.7187,3.7186,3.7186,0,0,3.7023,3.7055,3.7065,3.7079,3.7104,3.7129,3.7166,3.7196,3.7212,3.7234,3.7263,3.7304,3.729,3.7305,3.7302,3.7327,3.7379,3.7308,3.7308,3.7319,3.7439,3.7449,3.7459,3.7371,3.7373,3.7374,3.7436,0,3.7087,3.7153,3.7155,3.7214,3.7245,3.7233,3.7265,3.7282,3.7288,3.7314,3.732,3.7349,3.7328,3.7337,3.7361,3.7367,3.7402,3.7363,3.7396,3.7397,3.739,3.747,3.7481,3.7539,3.7444,3.7446,3.7447,0,3.7171,3.7196,3.7259,3.728,3.7292,3.7321,3.7347,3.7373,3.7392,3.7395,3.7412,3.7406,3.7441,3.7413,3.746,3.7434,3.7447,3.7453,3.7455,3.7456,3.7424,3.7471,3.7557,3.7565,3.746,3.7459,3.7458,0,3.7221,3.7271,3.7315,3.7327,3.7353,3.7373,3.7384,3.7402,3.7419,3.7442,3.7452,3.7479,3.7492,3.7512,3.7512,3.7492,3.7559,3.7531,3.7561,3.7561,3.7574,3.7573,3.7661,3.7586,3.7586,3.7586,3.7586,0,3.7291,3.733,3.7338,3.7365,3.7407,3.7408,3.7449,3.7458,3.7475,3.7501,3.7493,3.7518,3.7517,3.7542,3.7543,3.7581,3.7588,3.7589,3.7588,3.7589,3.7588,3.7596,3.7591,3.7588,3.7588,3.7587,3.7587,0,3.7354,3.7362,3.7409,3.7429,3.7435,3.7465,3.7481,3.7506,3.7512,3.7546,3.7554,3.7562,3.7591,3.7594,3.7627,3.7627,3.7673,3.7669,3.7667,3.7665,3.7694,3.769,3.7789,3.7801,3.772,3.7721,3.7721,0,3.7398,3.7427,3.7451,3.747,3.7482,3.7512,3.753,3.7531,3.755,3.7574,3.7595,3.7624,3.7647,3.7693,3.7701,3.7726,3.7721,3.7754,3.7725,3.7724,3.7719,3.7717,3.7719,3.7759,3.776,3.7761,3.7761,0,3.7473,3.7476,3.7503,3.7531,3.7553,3.7575,3.7596,3.7611,3.7615,3.7636,3.7667,3.7684,3.7719,3.7746,3.7771,3.778,3.7771,3.7771,3.7779,3.7778,3.7775,3.7775,3.768,3.7768,3.7767,3.7767,3.7766,3.7766,3.7526,3.7552,3.7573,3.7603,3.7619,3.7638,3.7662,3.7672,3.7698,3.7727,3.7726,3.7759,3.7776,3.7809,3.782,3.7845,3.7833,3.7845,3.7848,3.785,3.7852,3.7773,3.7849,3.7849,3.7849,3.7849,3.7849,0,3.76,3.7613,3.7641,3.7671,3.7694,3.7686,3.7708,3.7727,3.7757,3.7775,3.7798,3.7832,3.7859,3.787,3.7895,3.7913,3.7909,3.7919,3.7917,3.7919,3.7862,3.7852,3.7922,3.7922,3.7922,3.7922,3.7922,3.7922,3.764,3.7682,3.7687,3.7736,3.7749,3.7782,3.7796,3.7813,3.7827,3.7866,3.7889,3.7897,3.7911,3.7938,3.7961,3.7964,3.7972,3.7984,3.7984,3.793,3.7923,3.7916,3.7906,3.7987,3.7987,3.8039,3.804,3.804]}]]